Miscellaneous Local Product
Issued by NWS Hastings, NE

Home | Current Version | Previous Version | Graphics & Text | Print | Product List | Glossary On
Versions: 1 2 3 4 5 6 7 8 9 10 11 12 13 14 15 16 17 18 19 20 21 22 23 24 25 26 27 28 29 30 31 32 33 34 35 36 37 38 39 40 41 42 43 44 45 46 47 48 49 50
000
AXUS43 KGID 180002
MISGRI

GID CWA HOURLY WEATHER ROUNDUP
NATIONAL WEATHER SERVICE HASTINGS NE
700 PM CDT TUE OCT 17 2017

NOTE: "FAIR" INDICATES FEW OR NO CLOUDS BELOW 12,000 FEET WITH NO
SIGNIFICANT WEATHER AND/OR OBSTRUCTIONS TO VISIBILITY.

...SOUTH CENTRAL NEBRASKA...

CITY           SKY/WX    TMP DP  RH WIND       PRES   REMARKS
GRAND ISLAND   CLEAR     67  42  40 S7        29.98S
HASTINGS       CLEAR     69  42  37 SE6       29.99S
KEARNEY        CLEAR     69  37  30 S8        29.98S
ORD            CLEAR     64  37  36 CALM      29.95S
YORK           CLEAR     68  43  40 S9        29.98S
AURORA         CLEAR     68  38  34 S5        29.98S
LEXINGTON      CLEAR     65  37  34 S9        29.98F
HOLDREGE       CLEAR     69  37  31 S6        29.99S
HEBRON         CLEAR     62  47  59 S5        30.00S

...NEBRASKA PANHANDLE...

CITY           SKY/WX    TMP DP  RH WIND       PRES   REMARKS
CHADRON        CLEAR     69  18  14 W8        29.90S
ALLIANCE       CLEAR     60  21  22 SW9       29.96S
SCOTTSBLUFF    CLEAR     67  21  17 W7        29.97F
SIDNEY         CLEAR     63  17  17 SW7       30.02F HAZE

...WESTERN AND NORTH CENTRAL NEBRASKA...

CITY           SKY/WX    TMP DP  RH WIND       PRES   REMARKS
VALENTINE      CLEAR     67  28  23 SW6       29.89F
AINSWORTH      CLEAR     63  35  36 S8        29.92S
ONEILL         PTCLDY    66  43  44 S7        29.93S
BROKEN BOW     CLEAR     63  43  48 CALM      29.96S
IMPERIAL       CLEAR     66  22  18 S7        29.99F
NORTH PLATTE   CLEAR     69  31  24 S9        29.96S
MCCOOK         CLEAR     72  32  23 S6        29.99F

...EASTERN NEBRASKA...

CITY           SKY/WX    TMP DP  RH WIND       PRES   REMARKS
NORFOLK        CLEAR     65  42  43 S10       29.95S
SO SIOUX CITY  CLEAR     65  47  52 SE9       29.96S
TEKAMAH        CLEAR     59  44  57 SE7       29.98S
COLUMBUS       CLEAR     66  44  45 SE8       29.97F
ALBION         PTCLDY    67  41  39 CALM      29.96S
OMAHA EPPLEY   PTCLDY    63  46  54 SE7       29.99F
OFFUTT AFB     CLEAR     65  47  51 SE3       29.99S
MILLARD        CLEAR     64  50  61 CALM      29.99F
LINCOLN        CLEAR     64  47  53 S7        30.00S
NEBRASKA CITY  CLEAR     64  47  54 S3        30.01S
BEATRICE       CLEAR     66  48  52 S3        30.00F
FALLS CITY     CLEAR     66  46  48 S7        30.02R

...NORTHERN KANSAS...

CITY           SKY/WX    TMP DP  RH WIND       PRES   REMARKS
GOODLAND       CLEAR     61  32  33 S9        30.04F
HILL CITY      CLEAR     71  37  28 S6        30.00F
NORTON         CLEAR     68  28  22 SE5       29.99F
PHILLIPSBURG   CLEAR     70  37  30 E3        29.99S
SMITH CENTER   PTCLDY    63  43  48 E6        29.99F HAZE
HAYS           CLEAR     69  45  41 S9        30.00S
RUSSELL        CLEAR     68  47  46 SE9       30.00R
CONCORDIA      CLEAR     63  49  60 S8        30.00F
SALINA         CLEAR     65  50  58 S9        30.02S
TOPEKA         CLEAR     68  47  46 S9        30.05R



USA.gov is the U.S. government's official web portal to all federal, state and local government web resources and services.